Puyallup, WA

5:07 AM PDT on October 18, 2017 (GMT -0700)
Pierce County - Thun Field

Weather History for KPLU - February, 2014

Change the Weather History Date:

Wednesday, February 26, 2014

  Actual Average (KTCM) Record (KTCM)
Temperature  
Mean Temperature 44 °F -  
Max Temperature 55 °F 48 °F 64 °F (1991)
Min Temperature 32 °F 30 °F 14 °F (2011)
Degree Days  
Heating Degree Days 22    
Moisture  
Dew Point 37 °F    
Average Humidity 84    
Maximum Humidity 100    
Minimum Humidity 54    
Precipitation  
Precipitation 0.00 in - - ()
Sea Level Pressure  
Sea Level Pressure 29.85 in    
Wind  
Wind Speed 0 mph (WSW)    
Max Wind Speed 6 mph    
Max Gust Speed -    
Visibility 8 miles    
Events Fog    
Averages and records for this station are not official NWS values.
T = Trace of Precipitation, MM = Missing Value Source: NWS Daily Summary

Daily Weather History Graph

Daily Weather History Graph

Search for Another Location

Airport or City:

Trip Planner

Search our weather history database for the weather conditions in past years. The results will help you decide how hot, cold, wet, or windy it might be!

Date:

Astronomy

Feb. 26, 2014 Rise Set
Actual Time 6:54 AM PST 5:50 PM PST
Civil Twilight 6:23 AM PST 6:21 PM PST
Nautical Twilight 5:48 AM PST 6:56 PM PST
Astronomical Twilight 5:13 AM PST 7:31 PM PST
Moon 4:53 AM PST (2/26) 3:04 PM PST (2/26)
Length of Visible Light 11h 57m
Length of Day
10h 55m
Waning Crescent, 9% of the Moon is Illuminated
Feb 26
Waning Crescent
Mar 1
New
Mar 8
First Quarter
Mar 16
Full
Mar 23
Last Quarter

Hourly Weather History & Observations

Time (PST) Temp. Windchill Dew Point Humidity Pressure Visibility Wind Dir Wind Speed Gust Speed Precip Events Conditions
12:15 AM 35.6 °F - 35.6 °F 100% 29.97 in 10.0 mi Calm Calm - N/A   Unknown
12:35 AM 35.6 °F - 35.6 °F 100% 29.97 in 10.0 mi Calm Calm - N/A   Unknown
12:55 AM 35.6 °F - 35.6 °F 100% 29.97 in 10.0 mi Calm Calm - N/A   Unknown
1:15 AM 33.8 °F - 33.8 °F 100% 29.97 in 10.0 mi Calm Calm - N/A   Unknown
1:35 AM 33.8 °F - 33.8 °F 100% 29.96 in 10.0 mi Calm Calm - N/A   Unknown
1:55 AM 33.8 °F - 33.8 °F 100% 29.96 in 10.0 mi Calm Calm - N/A   Unknown
2:15 AM 33.8 °F - 33.8 °F 100% 29.96 in 10.0 mi Calm Calm - N/A   Unknown
2:35 AM 32.0 °F - 32.0 °F 100% 29.95 in 10.0 mi Calm Calm - N/A   Unknown
2:55 AM 32.0 °F - 32.0 °F 100% 29.94 in 10.0 mi Calm Calm - N/A   Unknown
3:15 AM 32.0 °F - 32.0 °F 100% 29.93 in 9.0 mi Calm Calm - N/A   Unknown
3:35 AM 32.0 °F - 32.0 °F 100% 29.93 in 9.0 mi Calm Calm - N/A   Unknown
3:55 AM 32.0 °F - 32.0 °F 100% 29.93 in 8.0 mi Calm Calm - N/A   Unknown
4:15 AM 32.0 °F - 32.0 °F 100% 29.92 in 7.0 mi Calm Calm - N/A   Unknown
4:35 AM 32.0 °F - 32.0 °F 100% 29.92 in 8.0 mi Calm Calm - N/A   Unknown
4:55 AM 32.0 °F - 32.0 °F 100% 29.91 in 3.0 mi Calm Calm - N/A   Mist
5:15 AM 32.0 °F - 32.0 °F 100% 29.90 in 6.0 mi Calm Calm - N/A   Mist
5:35 AM 32.0 °F - 32.0 °F 100% 29.90 in 3.0 mi Calm Calm - N/A   Mist
5:55 AM 32.0 °F - 32.0 °F 100% 29.89 in 0.5 mi Calm Calm - N/A Fog Fog
6:15 AM 32.0 °F - 32.0 °F 100% 29.88 in 0.2 mi Calm Calm - N/A Fog Light Freezing Fog
6:35 AM 32.0 °F - 32.0 °F 100% 29.88 in 0.8 mi Calm Calm - N/A   Mist
6:55 AM 32.0 °F - 32.0 °F 100% 29.88 in 1.2 mi Calm Calm - N/A   Mist
7:15 AM 32.0 °F - 32.0 °F 100% 29.88 in 2.5 mi Calm Calm - N/A   Mist
7:35 AM 32.0 °F - 32.0 °F 100% 29.88 in 2.5 mi Calm Calm - N/A   Mist
7:55 AM 32.0 °F - 32.0 °F 100% 29.88 in 3.0 mi Calm Calm - N/A   Mist
8:15 AM 32.0 °F - 32.0 °F 100% 29.88 in 0.2 mi Calm Calm - N/A Fog Fog
8:35 AM 33.8 °F - 33.8 °F 100% 29.88 in 0.2 mi Calm Calm - N/A Fog Fog
9:00 AM 37.4 °F - 37.4 °F 100% 29.89 in 3.0 mi Calm Calm - N/A   Mist
9:15 AM 37.4 °F - 37.4 °F 100% 29.89 in 7.0 mi Calm Calm - N/A   Unknown
9:35 AM 39.2 °F 37.0 °F 39.2 °F 100% 29.89 in 10.0 mi SSW 3.5 mph - N/A   Unknown
9:55 AM 41.0 °F 39.0 °F 41.0 °F 100% 29.89 in 10.0 mi SW 3.5 mph - N/A   Unknown
10:15 AM 42.8 °F 39.3 °F 39.2 °F 87% 29.90 in 10.0 mi WSW 5.8 mph - N/A   Unknown
10:35 AM 44.6 °F 43.1 °F 39.2 °F 81% 29.91 in 10.0 mi WSW 3.5 mph - N/A   Unknown
10:55 AM 46.4 °F 45.2 °F 39.2 °F 76% 29.90 in 10.0 mi South 3.5 mph - N/A   Unknown
11:15 AM 48.2 °F - 39.2 °F 71% 29.90 in 10.0 mi Calm Calm - N/A   Unknown
11:35 AM 48.2 °F - 39.2 °F 71% 29.90 in 10.0 mi Calm Calm - N/A   Unknown
11:55 AM 48.2 °F - 39.2 °F 71% 29.89 in 10.0 mi Calm Calm - N/A   Unknown
12:15 PM 50.0 °F - 39.2 °F 66% 29.89 in 10.0 mi Calm Calm - N/A   Unknown
12:35 PM 50.0 °F - 39.2 °F 66% 29.88 in 10.0 mi West 3.5 mph - N/A   Unknown
12:55 PM 50.0 °F - 41.0 °F 71% 29.88 in 10.0 mi West 3.5 mph - N/A   Unknown
1:15 PM 53.6 °F - 41.0 °F 62% 29.87 in 10.0 mi WSW 3.5 mph - N/A   Unknown
1:40 PM 53.6 °F - 39.2 °F 58% 29.85 in 10.0 mi Calm Calm - N/A   Unknown
1:55 PM 53.6 °F - 39.2 °F 58% 29.85 in 10.0 mi Calm Calm - N/A   Unknown
2:15 PM 53.6 °F - 39.2 °F 58% 29.84 in 10.0 mi Calm Calm - N/A   Unknown
2:35 PM 55.4 °F - 41.0 °F 58% 29.84 in 10.0 mi West 3.5 mph - N/A   Unknown
2:55 PM 55.4 °F - 41.0 °F 58% 29.83 in 10.0 mi Calm Calm - N/A   Unknown
3:15 PM 55.4 °F - 39.2 °F 54% 29.83 in 10.0 mi Calm Calm - N/A   Unknown
3:35 PM 55.4 °F - 39.2 °F 54% 29.83 in 10.0 mi SW 3.5 mph - N/A   Unknown
3:55 PM 55.4 °F - 39.2 °F 54% 29.82 in 10.0 mi WSW 3.5 mph - N/A   Unknown
4:15 PM 53.6 °F - 39.2 °F 58% 29.81 in 10.0 mi Calm Calm - N/A   Unknown
4:35 PM 53.6 °F - 41.0 °F 62% 29.80 in 10.0 mi Calm Calm - N/A   Unknown
4:55 PM 53.6 °F - 41.0 °F 62% 29.79 in 10.0 mi Calm Calm - N/A   Unknown
5:15 PM 53.6 °F - 41.0 °F 62% 29.79 in 10.0 mi Calm Calm - N/A   Unknown
5:35 PM 50.0 °F - 41.0 °F 71% 29.78 in 10.0 mi Calm Calm - N/A   Unknown
5:55 PM 48.2 °F - 41.0 °F 76% 29.77 in 10.0 mi Calm Calm - N/A   Unknown
6:15 PM 48.2 °F - 42.8 °F 82% 29.77 in 10.0 mi North 3.5 mph - N/A   Unknown
6:35 PM 48.2 °F - 41.0 °F 76% 29.77 in 10.0 mi Calm Calm - N/A   Unknown
6:55 PM 46.4 °F - 41.0 °F 81% 29.77 in 10.0 mi Calm Calm - N/A   Unknown
7:15 PM 48.2 °F - 39.2 °F 71% 29.76 in 10.0 mi Calm Calm - N/A   Unknown
7:35 PM 48.2 °F - 37.4 °F 66% 29.75 in 10.0 mi Calm Calm - N/A   Unknown
7:55 PM 46.4 °F - 37.4 °F 71% 29.76 in 10.0 mi Calm Calm - N/A   Unknown
8:15 PM 46.4 °F - 37.4 °F 71% 29.75 in 10.0 mi Calm Calm - N/A   Unknown
8:35 PM 46.4 °F - 39.2 °F 76% 29.75 in 10.0 mi Calm Calm - N/A   Unknown
8:55 PM 46.4 °F - 39.2 °F 76% 29.75 in 10.0 mi Calm Calm - N/A   Unknown
9:15 PM 44.6 °F - 39.2 °F 81% 29.75 in 10.0 mi Calm Calm - N/A   Unknown
9:35 PM 44.6 °F - 39.2 °F 81% 29.74 in 10.0 mi Calm Calm - N/A   Unknown
9:55 PM 44.6 °F - 41.0 °F 87% 29.74 in 10.0 mi Calm Calm - N/A   Unknown
10:15 PM 44.6 °F - 41.0 °F 87% 29.73 in 10.0 mi Calm Calm - N/A   Unknown
10:35 PM 44.6 °F - 41.0 °F 87% 29.72 in 10.0 mi Calm Calm - N/A   Unknown
10:55 PM 42.8 °F - 41.0 °F 93% 29.72 in 10.0 mi Calm Calm - N/A   Unknown
11:15 PM 42.8 °F - 41.0 °F 93% 29.70 in 10.0 mi Calm Calm - N/A   Unknown
11:35 PM 41.0 °F - 39.2 °F 93% 29.70 in 10.0 mi Calm Calm - N/A   Unknown
11:55 PM 39.2 °F - 39.2 °F 100% 29.69 in 10.0 mi Calm Calm - N/A   Unknown